sat.trackr.live / text

‹ back to catalog

FOSSASAT-2E22

NORAD 66779 · 2025-276DU

PAYLOAD ACTIVE UNKNOWN

§ Identity

Operator
Country
SPN
Launch date
2025-11-28
Launch site
AFWTR
Launch vehicle
Mass (kg)
RCS (m²)

External: N2YO · Heavens-Above · Gunter

§ Orbital elements

Epoch: 2026-05-25T03:04:29.997408Z

Period
94.85 min
Inclination
97.4188°
Eccentricity
0.0004763
Mean motion
15.18260365 rev/d
Perigee alt
507.8 km
Apogee alt
514.4 km
Semi-major
6,889.2 km
B*
2.2088e-4
RAAN
218.7726°
Arg perigee
201.4341°
Mean anomaly
158.6694°
Rev number
2,690

§ Raw data

FOSSASAT-2E221 66779U 25276DU  26145.12812497  .00004458  00000+0  22088-3 0  99922 66779  97.4188 218.7726 0004763 201.4341 158.6694 15.18260365 26905

JSON: /api/v1/satellites/66779 · /tle

For live sub-satellite position, see the globe view (requires WebGL).

§ Visibility from observer

Set your observer location to see the next 7 days of passes ≥ 10°. The values pass through the URL so the page stays shareable.

No JS? Fill the form by hand. The geolocation button needs JavaScript.